STARLINK-30106, 56288

Orbit data source: Space-Track

STARLINK-30106, 56288 is a payload satellite owned by SpaceX/Seattle (US) in LEO that was launched on Wed, 19 Apr 2023 UTC via an FALCON 9 launch vehicle from the Air Force Eastern Test Range (AFETR). Payload-class satellites include a variety of spacecraft equipped with specific instruments for various scientific and technological missions. These include communications satellites like Starlink; space stations such as the ISS; scientific satellites like the Hubble; Earth observation satellites from companies like Planet Labs, Umbra, and HawkEye 360; GPS; miniature CubeSats for education and research; and military/defense satellites.

Loading next visibility...
Identifier
56288, 2023-056C
Orbit
LEO
Country
Flag of USUS
Related business
Manufacturer
SpaceX/Seattle
Mission
Operational Commercial Communications
Bus & Motor
STARLINK V2M, Unknown motor
Mass
730 kg wet, ~700 kg dry
Launch date (UTC)
2023-04-19 (3 years ago)
Launch vehicle
FALCON 9
Launch site
Air Force Eastern Test Range (AFETR)
Object type
Payload
Rocket body
Debris
Shape & HBR
Box + 2 Pan, 17.7 m
Radar Cross Section
33.884 m², Large (>1 m²)

Expand to show TLE details & history
Last TLE update: 3 days ago

TLE from 3 days ago
0 STARLINK-30106
1 56288U 23056C   26170.58383720  .00000488  00000-0  27274-4 0  9993
2 56288  43.0045 353.4636 0002005 277.4919  82.5705 15.27579626175621
Epoch: 2026-06-19T14:00Z
TLE epoch observation values (Epoch: 2026-06-19T14:00:43.534Z)
Latitude
0.00001°
Longitude
-124.52851°
Altitude
482.649 km
Speed
7.626 km/s
True Right ascension
23h 33m 51s
True Declination
0° 00' 00"
Sunlit
Object was in daylight at epoch
Visualization orbit readout
Latitude
Unknown
Longitude
Unknown
Altitude
Unknown
Speed
Unknown
Apparent Right ascension
Unknown
Apparent Declination
Unknown
Sunlit
N/A
Visualization observer readout
Local Sidereal Time
23:19:41
Azimuth
Unknown
Elevation
Unknown
Doppler factor
Unknown
Orbital elements
Apogee altitude
486.371 km
Perigee altitude
483.619 km
Semi-major axis
6,863.132 km
Eccentricity
0.0002
Inclination
43.0045°
RAAN
353.4636°
Arg. of periapsis
277.4919°
True anomaly
82.59328°
Mean anomaly
82.5705°
Eccentric anomaly
82.58189°
Mean motion
3.81733 °/min
Orbital period
94.31 mins
BSTAR
0.000027274
Loading maneuver chart data...
Computing Atmospheric mass density...
Loading historical data...
Loading historical data...
Loading historical data...
Loading historical data...
Loading historical data...
Loading historical data...
Loading historical data...

Documentation

Showing up to 5 results
|